Weather History for Bonaire, Bonaire

Change the Weather History Date:

Sunday, April 21, 2013

  Actual Average Record
Temperature  
Mean Temperature 83 °F -  
Max Temperature 88 °F 86 °F 93 °F (2007)
Min Temperature 78 °F 80 °F 75 °F (2011)
Cooling Degree Days 18    
Growing Degree Days 33 (Base 50)    
Moisture  
Dew Point 74 °F    
Average Humidity 77    
Maximum Humidity 89    
Minimum Humidity 59    
Precipitation  
Precipitation 0.00 in - - ()
Sea Level Pressure  
Sea Level Pressure 29.93 in    
Wind  
Wind Speed 9 mph ()    
Max Wind Speed 15 mph    
Max Gust Speed -    
Visibility 7.9 miles    
Events      
Averages and records for this station are not official NWS values.
T = Trace of Precipitation, MM = Missing Value Source: Averaged Metar Reports

Daily Weather History Graph

Daily Weather History Graph

Search for Another Location

Airport:

Trip Planner

Search our weather history database for the weather conditions in past years. The results will help you decide how hot, cold, wet, or windy it might be!

Date:

Astronomy

Apr. 21, 2013 Rise Set
Actual Time 6:17 AM AST 6:45 PM AST
Civil Twilight 5:56 AM AST 7:07 PM AST
Nautical Twilight 5:30 AM AST 7:32 PM AST
Astronomical Twilight 5:05 AM AST 7:58 PM AST
Moon 3:08 PM AST 2:52 AM AST
Length of Visible Light 13h 11m
Length of Day
12h 27m
Waxing Gibbous, 79% of the Moon is Illuminated
Apr 21
Waxing Gibbous
Apr 25
Full
May 2
Last Quarter
May 9
New
May 18
First Quarter

Hourly Weather History & Observations

Time (AST) Temp. Heat Index Dew Point Humidity Pressure Visibility Wind Dir Wind Speed Gust Speed Precip Events Conditions
12:00 AM 80.6 °F 86.2 °F 75.2 °F 84% 29.95 in - East 8.1 mph - N/A   Unknown
1:00 AM 78.8 °F - 75.2 °F 89% 29.95 in - East 9.2 mph - N/A   Unknown
2:00 AM 79 °F - 75 °F 84%  in - East 6.9 mph - -   Clear
2:00 AM 78.8 °F - 75.2 °F 89% 29.92 in - East 6.9 mph - N/A   Unknown
3:00 AM 78.8 °F - 75.2 °F 89% 29.92 in - ENE 6.9 mph - N/A   Unknown
4:00 AM 78.8 °F - 75.2 °F 89% 29.92 in - East 5.8 mph - N/A   Unknown
5:00 AM 78.8 °F - 75.2 °F 89% 29.92 in - East 6.9 mph - N/A   Unknown
6:00 AM 78.8 °F - 75.2 °F 89% 29.92 in - East 6.9 mph - N/A   Unknown
7:00 AM 80.6 °F 86.2 °F 75.2 °F 84% 29.95 in - East 8.1 mph - N/A   Unknown
8:00 AM 82 °F - 76 °F 78%  in - East 11.5 mph - -   Clear
8:00 AM 82.4 °F 90.9 °F 77.0 °F 84% 29.95 in - East 11.5 mph - N/A   Unknown
9:00 AM 82.4 °F 88.2 °F 73.4 °F 74% 29.95 in 6.2 mi East 13.8 mph - N/A   Scattered Clouds
10:00 AM 84.2 °F 90.9 °F 73.4 °F 70% 29.95 in 6.2 mi ENE 13.8 mph - N/A   Scattered Clouds
12:00 PM 86.0 °F 91.8 °F 71.6 °F 62% 29.95 in 6.2 mi East 15.0 mph - N/A   Scattered Clouds
1:00 PM 87.8 °F 95.6 °F 73.4 °F 62% 29.95 in 6.2 mi East 13.8 mph - N/A   Scattered Clouds
2:00 PM 86 °F - 74 °F 59% 29.95 in 19 mi ESE 13.8 mph - -   Partly Cloudy
2:00 PM 86.0 °F 93.4 °F 73.4 °F 66% 29.92 in 6.2 mi ESE 13.8 mph - N/A   Scattered Clouds
3:00 PM 86.0 °F 93.4 °F 73.4 °F 66% 29.92 in 6.2 mi East 11.5 mph - N/A   Mostly Cloudy
4:00 PM 87.8 °F 97.6 °F 75.2 °F 66% 29.89 in 6.2 mi East 12.7 mph - N/A   Scattered Clouds
5:00 PM 86 °F - 74 °F 61% 29.89 in 19 mi East 12.7 mph - -   Partly Cloudy
5:00 PM 86.0 °F 93.4 °F 73.4 °F 66% 29.86 in 6.2 mi East 12.7 mph - N/A   Scattered Clouds
6:00 PM 84.2 °F 92.3 °F 75.2 °F 74% 29.89 in 6.2 mi ENE 9.2 mph - N/A   Scattered Clouds
7:00 PM 82.4 °F 88.2 °F 73.4 °F 74% 29.89 in 6.2 mi ENE 9.2 mph - N/A   Scattered Clouds
8:00 PM 82 °F - 74 °F 72%  in 6 mi ENE 10.4 mph - -   Clear
8:00 PM 80.6 °F 85.4 °F 73.4 °F 79% 29.92 in 6.2 mi ENE 10.4 mph - N/A   Scattered Clouds
9:00 PM 80.6 °F 86.2 °F 75.2 °F 84% 29.95 in 6.2 mi ENE 12.7 mph - N/A   Scattered Clouds
10:00 PM 78.8 °F - 73.4 °F 83% 29.95 in - ENE 10.4 mph - N/A   Scattered Clouds